Location: Weymouth Pines Observatory
(42.9326°N, 81.3883°W)
Time: 12:34:42
(UTC-04:00)

Daily predictions for brighter satellites

Satellite Brightness Start Highest point End
(mag) Time Altitude Azimuth Time Altitude Azimuth Time Altitude Azimuth
ERS-2 2.3 21:16:00 10° SSE 21:19:41 80° WSW 21:23:23 10° NNW
NOSS 3-2 (A) 4.0 21:15:18 10° S 21:20:27 33° ESE 21:26:02 10° NE
Okean 2 Rocket 4.3 21:16:26 10° NNW 21:20:38 45° W 21:24:51 10° SSW
USA 234 3.3 21:15:27 10° NE 21:22:02 73° SE 21:28:36 10° SW
Cosmos 1536 3.7 21:19:46 10° NNW 21:23:45 53° W 21:27:42 10° S
NOSS 3-2 (C) 4.4 21:19:18 10° SSE 21:23:57 25° ESE 21:28:55 10° ENE
Okean 1 Rocket 3.6 21:20:28 10° N 21:24:37 41° ENE 21:28:43 10° SSE
Cosmos 1242 Rocket 4.4 21:23:07 10° NNE 21:25:35 17° ENE 21:28:02 10° ESE
Cosmos 1674 Rocket 3.6 21:22:57 10° S 21:27:22 70° E 21:31:50 10° NNE
Cosmos 1378 Rocket 4.0 21:23:45 10° SSE 21:27:48 41° E 21:31:52 10° NNE
Atlas Centaur 2 3.2 21:29:16 10° SSW 21:30:23 11° S 21:31:30 10° SSE
Cosmos 1777 Rocket 4.5 21:26:38 10° NNW 21:31:46 61° WSW 21:36:52 10° S
Resurs 01 Rocket 1.9 21:27:23 10° S 21:31:47 73° WSW 21:36:12 10° NNW
ERS-1 Rocket 4.3 21:28:24 10° ESE 21:32:27 25° ENE 21:36:30 10° N
Tiangong 2 2.8 21:30:33 10° S 21:32:29 15° SSE 21:34:27 10° ESE
Cosmos 1975 3.6 21:30:50 10° N 21:34:35 35° ENE 21:38:14 10° SE
Cosmos 2082 Rocket 2.9 21:29:04 10° SW 21:34:39 62° WNW 21:40:19 10° NNE
Thor Agena Rocket 4.1 21:31:01 10° N 21:36:16 66° WNW 21:41:27 10° SSW
Cosmos 2322 Rocket 3.4 21:32:21 10° N 21:37:12 29° NE 21:42:00 10° ESE
COSMOS 2487 2.4 21:33:55 10° S 21:37:22 63° ESE 21:40:52 10° NNE
NOAA 11 4.2 21:32:17 10° SSE 21:37:46 89° ENE 21:43:16 10° NNW
Cosmos 1184 Rocket 3.6 21:39:01 10° SSW 21:42:19 55° WNW 21:45:38 10° N
Cosmos 1864 Rocket 4.5 21:37:02 10° S 21:43:11 78° E 21:49:19 10° N
SL-16 R/B 3.2 21:38:36 10° N 21:43:45 34° NE 21:48:26 12° ESE
Cosmos 371 Rocket 4.2 21:42:32 10° SW 21:47:15 53° WNW 21:51:58 10° N
USA 186 4.3 21:47:51 10° SW 21:50:14 20° W 21:52:43 10° NW
Timation 2 Rocket 4.4 21:44:57 10° S 21:50:22 38° ESE 21:55:52 10° NE
ARGOS 3.3 21:49:16 11° SSE 21:54:25 61° ENE 21:59:45 10° N
Cosmos 2360 4.4 21:50:53 10° NNW 21:56:35 71° WSW 22:02:14 10° SSE
SPOT 5 4.1 21:54:04 13° ESE 21:56:52 23° ENE 22:00:24 10° NNE
GPS 2-04 Rocket1 4.1 21:53:46 10° WSW 21:57:20 26° S 21:59:43 16° SE
CENTAUR R/B 3.7 21:55:22 13° SE 21:58:28 20° ESE 22:02:54 10° ENE
SJ 16-02 3.8 22:01:35 10° NE 22:02:19 10° NE 22:03:03 10° ENE
Okean 3 4.4 21:58:26 10° SSW 22:02:37 51° WNW 22:06:49 10° N
Helios 1A 4.1 22:03:55 17° ESE 22:06:18 29° ENE 22:09:54 10° N
ATLAS 3B R/B 2.8 22:00:30 10° SW 22:07:44 87° NW 22:14:41 10° NE
Okean 1 3.9 22:10:56 10° SSW 22:14:55 59° W 22:18:58 10° N
USA 32 4.5 22:11:49 10° N 22:16:52 45° E 22:20:04 21° SE
Cosmos 2084 4.1 22:17:48 15° S 22:20:40 32° ESE 22:24:21 10° NE
Terra 3.3 22:20:01 16° ESE 22:22:18 23° ENE 22:26:01 10° NNE
Lacrosse 5 rocket 3.6 22:20:43 10° NNW 22:23:56 19° NNE 22:27:01 10° ENE
Cosmos 1937 Rocket 3.6 22:19:49 10° NNW 22:24:55 58° ENE 22:27:55 24° SE
Shenzhou-11 Module 1.8 22:22:34 10° W 22:25:33 88° S 22:26:59 27° E
Cosmos 468 Rocket 3.9 22:20:35 10° SSW 22:25:51 79° ESE 22:31:08 10° NNE
Aureole 2 Rocket 3.9 22:23:51 10° NNE 22:26:06 19° ENE 22:26:39 18° ENE
USA 245 3.0 22:25:00 31° SE 22:26:21 63° ENE 22:30:12 10° N
Cosmos 2360 Rocket 3.3 22:24:44 10° N 22:29:48 33° NE 22:33:03 19° ESE
ISS -3.9 22:26:35 10° SW 22:29:51 89° ESE 22:33:08 10° ENE
CZ-4C R/B 4.4 22:26:08 10° NNW 22:31:39 25° NNE 22:37:44 10° E
MetOp-B 4.3 22:27:45 16° S 22:32:00 75° WSW 22:37:22 10° NNW
Cosmos 1980 Rocket 3.4 22:27:20 10° NW 22:32:26 36° WSW 22:37:31 10° S
SL-08 RB Rocket 3.8 22:29:44 19° S 22:32:55 74° WSW 22:37:29 10° NNW
Cosmos 2219 Rocket 4.4 22:33:15 10° NNE 22:35:53 13° NE 22:38:31 10° ENE
Meteor 2-9 Rocket 4.0 22:32:14 10° N 22:37:35 74° E 22:40:44 25° SSE
Cosmos 1763 Rocket 3.5 22:34:07 13° S 22:38:50 65° ESE 22:44:06 10° NNE
Cosmos 1666 3.7 22:36:06 10° NNW 22:39:48 44° W 22:42:32 17° SSW
Cosmos 841 Rocket 3.8 22:37:55 24° SSE 22:40:43 47° ESE 22:45:45 10° NNE
Cosmos 1743 3.6 22:37:34 10° NNW 22:41:16 46° W 22:43:47 18° SSW
Cosmos 2333 Rocket 4.4 22:38:44 10° NNE 22:41:31 14° NE 22:44:18 10° ENE
Cosmos 540 Rocket 4.4 22:41:48 26° ESE 22:42:46 28° E 22:47:07 10° NE
SPOT 1/Viking Rocket 3.6 22:40:44 27° SSE 22:43:31 67° ENE 22:48:39 10° N
COSMOS 2428 4.5 22:41:13 10° N 22:45:25 21° NE 22:48:47 13° E
Cosmos 858 Rocket 4.5 22:40:48 10° NNW 22:46:00 81° WSW 22:48:48 28° SSE
CZ-2C R/B 4.1 22:43:02 10° NE 22:47:10 21° E 22:47:57 20° ESE
H-2A R/B 2.4 22:44:12 18° S 22:47:41 55° W 22:52:36 10° NNW
DMSP B5D2-2 4.0 22:43:05 10° NNE 22:48:24 76° ESE 22:52:04 20° S
Meteor 2-4 Rocket 3.6 22:45:41 18° S 22:49:46 84° E 22:55:20 10° NNE
Abrixas rocket 3.4 22:46:51 10° SW 22:48:33 27° SSW 22:48:33 27° SSW
Helios 1B rocket 2.6 22:47:33 10° NNE 22:51:37 54° E 22:52:46 40° SSE
Cosmos 1340 Rocket 2.7 22:51:32 37° S 22:53:01 71° E 22:57:05 10° NNE
Cosmos 1455 Rocket 3.0 22:49:57 10° N 22:54:20 89° W 22:56:06 36° S
IGS 5A 3.9 22:53:25 37° ESE 22:54:33 47° ENE 22:58:34 10° N
Cosmos 1833 4.5 22:53:11 29° SSE 22:55:44 47° ESE 23:01:11 10° NE
ATLAS CENTAUR R/B 3.7 22:53:21 10° WNW 22:56:36 19° WSW 22:59:24 12° SSW
Cosmos 1025 Rocket 4.2 22:59:55 27° E 23:00:03 27° E 23:03:44 10° NNE
Cosmos 1242 Rocket 4.2 22:57:21 10° NNW 23:00:35 30° W 23:02:29 19° SW
Cosmos 1898 Rocket 4.3 22:57:31 10° NNW 23:02:35 47° WSW 23:05:32 23° SSW
Cosmos 1356 3.3 23:02:48 66° SE 23:03:08 74° E 23:06:37 10° NNE
Cosmos 1975 Rocket 4.5 23:00:03 10° SW 23:04:03 35° WNW 23:08:02 10° N
Spot 1 3.9 23:04:56 48° SE 23:05:57 70° ENE 23:10:02 10° N
Tiangong 2 3.1 23:05:42 10° WSW 23:06:45 19° WSW 23:06:45 19° WSW
Cosmos 1814 Rocket 4.2 23:06:16 13° SSW 23:10:57 72° WNW 23:16:17 10° NNE
ERS-1 Rocket 3.9 23:07:59 20° SSW 23:11:00 41° W 23:15:45 10° NNW
NOSS 3-2 (A) 4.5 23:05:15 10° WSW 23:11:00 48° NW 23:17:26 10° NNE
BREEZE M DEB (TANK) 2.8 23:04:40 10° WNW 23:12:30 51° SW 23:13:13 44° S
Cosmos 2322 4.1 23:07:17 10° NNW 23:12:53 51° ENE 23:15:05 34° ESE
Meteor 1-29 2.8 23:10:05 10° NNE 23:13:35 75° ESE 23:13:38 74° ESE
NOSS 3-2 (C) 4.0 23:08:20 10° SW 23:14:13 61° NW 23:20:49 10° NNE
Meteor 1-15 Rocket 4.2 23:08:46 10° N 23:14:34 77° E 23:16:45 39° SSE
BREEZE-M R/B 3.6 23:12:16 10° W 23:15:13 34° NNW 23:16:40 18° NE
Cosmos 1125 Rocket 4.2 23:10:50 10° N 23:15:51 42° ENE 23:17:27 33° ESE
Cosmos 292 Rocket 3.7 23:16:51 31° SSW 23:19:09 85° WNW 23:23:56 10° NNE
Cosmos 1544 Rocket 4.4 23:16:49 10° NNW 23:21:02 45° W 23:22:46 30° SW
Cosmos 2322 Rocket 2.9 23:16:05 10° NW 23:21:25 45° WSW 23:23:50 29° SSW
Cosmos 1515 3.9 23:21:34 49° SW 23:22:25 67° W 23:26:15 10° N
Cosmos 1092 Rocket 4.4 23:16:24 10° N 23:22:34 50° ENE 23:24:43 36° SE
Cosmos 2237 Rocket 4.4 23:20:49 10° N 23:24:13 16° NE 23:27:37 10° E
Cosmos 1066 Rocket 4.5 23:24:22 40° ESE 23:25:15 44° E 23:30:21 10° NNE
SL-16 R/B 3.2 23:22:40 10° NW 23:27:53 38° WSW 23:30:19 26° SSW
Cosmos 2150 Rocket 4.5 23:23:18 10° NNW 23:28:34 55° WSW 23:30:26 37° SSW
Nadezhda 4 Rocket 3.9 23:23:03 10° N 23:29:22 82° E 23:31:47 41° SSE
Cosmos 836 Rocket 4.5 23:31:57 52° SSE 23:32:50 60° ESE 23:37:58 10° NNE
SPOT 5 3.9 23:33:17 27° SW 23:34:45 34° W 23:38:51 10° NNW
Cosmos 1536 Rocket 4.2 23:35:35 34° SW 23:37:11 52° WNW 23:41:33 10° N
Cosmos 2237 4.2 23:33:25 10° NNW 23:39:11 80° ENE 23:40:45 50° SE
Nimbus 7 Rocket 4.3 23:33:57 10° NNE 23:39:52 86° ESE 23:42:12 39° SSW
SJ 16-02 1.2 23:37:10 10° NNW 23:41:37 88° ENE 23:42:00 75° SSE
CZ-2C R/B 3.0 23:41:02 52° SSE 23:42:24 88° WSW 23:47:58 10° NNW
Cosmos 2219 4.0 23:44:28 33° E 23:44:28 33° E 23:49:23 10° NE
CENTAUR R/B 2.6 23:42:23 11° SW 23:48:08 75° NW 23:55:06 10° NE
Cosmos 1726 Rocket 4.5 23:44:16 10° N 23:48:18 35° ENE 23:48:18 35° ENE
Mayak 0.9 23:48:27 10° NE 23:50:06 16° ENE 23:50:06 16° ENE
Cosmos 2058 Rocket 4.4 23:48:00 10° NNE 23:51:56 28° ENE 23:52:00 28° ENE
